Other Public Products
Issued by NWS Charleston, SC

Current Version | Previous Version | Graphics & Text | Print | Product List | Glossary On
Versions: 1 2 3 4 5 6 7 8 9 10 11 12 13 14 15 16 17 18 19 20 21 22 23 24 25 26 27 28 29 30 31 32 33 34 35 36 37 38 39 40 41 42 43 44 45 46 47 48 49 50
000
FPUS82 KCHS 180927
OPUCHS

TEST...KCHS/KSAV Gateway Observations...TEST
National Weather Service Charleston SC
400 AM EST SAT NOV 18 2017

NOTE: "fair" indicates few or no clouds below 12,000 feet with no
significant weather and/or obstructions to visibility.

SCZ050-WAZ558-NCZ071-TXZ119-213-PAZ071-DCZ001-FLZ074-172-MI076-
NYZ176-178-MAZ016-IL014-TNZ027-NJZ106-GAZ044-MD014-181000-

...Gateway Observations for Charleston International...

CITY           SKY/WX    TMP DP  RH WIND       PRES   REMARKS
Chas Airport   PTCLDY    44  44 100 CALM      30.08F
Seattle        CLOUDY    45  39  79 S10       30.31S
Charlotte      CLOUDY    44  37  76 SE3       30.07F
Dallas DFW     MOCLDY    70  64  81 S8        29.68R
Dallas Love    PTCLDY    72  65  78 S10       29.69S
Philladelphia  CLOUDY    35  29  78 S6        30.03S WCI  30
Wash National  PTCLDY    39  32  76 S7        30.01F WCI  34
Baltimore      CLOUDY    33  28  81 SW3       30.00F
Miami          PTCLDY    69  60  73 N5        29.97F
Detroit        LGT RAIN  42  41  96 CALM      29.61F FOG
Newark         MOCLDY    33  20  58 CALM      30.01F
Laguardia      PTCLDY    37  18  46 CALM      30.00F
J F K          PTCLDY    30  25  81 E5        30.02F WCI  25
Boston Logan   PTCLDY    30  18  60 CALM      29.97F
Ft. Lauderdale PTCLDY    68  61  78 NE3       29.96F
Chicago O`Hare CLOUDY    46  44  93 NE6       29.51F FOG
Chicago Midway DRZL/FOG  48  47  96 NE3       29.52F VSB 1
Houston Bush   PTCLDY    72  68  87 S7        29.84F
Houston Hobby  CLEAR     69  68  96 S8        29.84F
Nashville      CLOUDY    61  47  59 S17G26    29.82F
Atlanta        PTCLDY    47  43  86 CALM      30.03F

$$

GAZ044-118-TXZ119-213-NCZ071-DCZ001-MDZ014-506-PAZ021-071-NJZ106-
NYZ176-178-MAZ106-OHZ011-021-055-MIZ076-KYZ091-ILZ014-INZ047-
MNZ060-ONZ431-181000-

...Gateway Observations for Savannah International...

CITY           SKY/WX    TMP DP  RH WIND       PRES   REMARKS
Savannah Arpt  PTCLDY    50  48  93 CALM      30.06F
Atlanta        PTCLDY    47  43  86 CALM      30.03F
Charlotte      CLOUDY    44  37  76 SE3       30.07F
Dallas DFW     MOCLDY    70  64  81 S8        29.68R
Houston Bush   PTCLDY    72  68  87 S7        29.84F
Wash National  PTCLDY    39  32  76 S7        30.01F WCI  34
Wash Dulles    PTCLDY    35  29  78 SW7       29.99F WCI  29
Baltimore      CLOUDY    33  28  81 SW3       30.00F
Philadelphia   CLOUDY    35  29  78 S6        30.03S WCI  30
Newark         MOCLDY    33  20  58 CALM      30.01F
Laguardia      PTCLDY    37  18  46 CALM      30.00F
J F K          PTCLDY    30  25  81 E5        30.02F WCI  25
Boston         PTCLDY    30  18  60 CALM      29.97F
Pittsburg      CLOUDY    40  27  59 SE3       29.76F
Akron          RAIN      42  37  82 S16       29.67F
Cleveland      RAIN      44  41  89 S16       29.66F FOG
Cincinnati     CLOUDY    54  45  71 S13G23    29.66F
Columbus       LGT RAIN  47  38  73 S10       29.66F
Detroit        LGT RAIN  42  41  96 CALM      29.61F FOG
Chicago O`Hare CLOUDY    46  44  93 NE6       29.51F FOG
Minneapolis    CLOUDY    35  34  96 N10       29.70F WCI  27
Indianapolis   TSTM      54  49  83 SE8       29.55F
Toronto Canada CLOUDY    39  32  75 SE3       29.70F

$$




USA.gov is the U.S. government's official web portal to all federal, state and local government web resources and services.